TAR723 LFPO-DTTA

Flight info

Callsign TAR723
Flight time 2h 14m
Altitude 41000
Route LATRA DCT LAMUT DCT UTUVA DCT TITVA DCT NOQAS DCT OTROT DCT RETNO DCT KOLON DCT LOKDU DCT PELOS DCT IPROM DCT CAR/N0357F190 P161 MEDAR
Aircraft A332/H-SDE3GHIJ2J3J5M1RVWXY/LB2D1

Departure

Time 2026-05-05 08:26
Airport Paris-Orly Airport (LFPO)

Arrival

Time 2026-05-05 10:40
Airport Tunis Carthage International Airport (DTTA)
Time Latitude Longitude Altitude Speed Heading
2026-05-05 07:56 48.73009 2.37636 289 ft 0 kts 270°
2026-05-05 08:14 48.73009 2.37641 290 ft 3 kts 270°
2026-05-05 08:14 48.73009 2.37681 291 ft 4 kts 270°
2026-05-05 08:15 48.73009 2.37722 291 ft 4 kts 268°
2026-05-05 08:15 48.73010 2.37763 293 ft 4 kts 266°
2026-05-05 08:15 48.73013 2.37804 296 ft 4 kts 262°
2026-05-05 08:15 48.73018 2.37844 296 ft 4 kts 251°
2026-05-05 08:16 48.73030 2.37876 297 ft 4 kts 209°
2026-05-05 08:16 48.73035 2.37880 297 ft 5 kts 198°
2026-05-05 08:20 48.73022 2.37874 296 ft 4 kts 198°
2026-05-05 08:20 48.72972 2.37849 297 ft 11 kts 198°
2026-05-05 08:20 48.72885 2.37805 296 ft 15 kts 198°
2026-05-05 08:21 48.72778 2.37752 299 ft 18 kts 198°
2026-05-05 08:21 48.72689 2.37670 298 ft 9 kts 242°
2026-05-05 08:21 48.72670 2.37575 297 ft 12 kts 254°
2026-05-05 08:21 48.72643 2.37426 298 ft 17 kts 255°
2026-05-05 08:22 48.72608 2.37228 295 ft 21 kts 255°
2026-05-05 08:22 48.72566 2.37007 298 ft 23 kts 254°
2026-05-05 08:22 48.72520 2.36764 298 ft 25 kts 254°
2026-05-05 08:22 48.72472 2.36497 298 ft 27 kts 254°
2026-05-05 08:23 48.72419 2.36211 298 ft 29 kts 255°
2026-05-05 08:23 48.72364 2.35912 297 ft 30 kts 254°
2026-05-05 08:23 48.72313 2.35662 299 ft 19 kts 240°
2026-05-05 08:23 48.72202 2.35612 298 ft 18 kts 166°
2026-05-05 08:24 48.72121 2.35643 296 ft 19 kts 165°
2026-05-05 08:24 48.72042 2.35753 298 ft 9 kts 133°
2026-05-05 08:24 48.72000 2.35831 298 ft 8 kts 134°
2026-05-05 08:24 48.71958 2.35894 299 ft 8 kts 115°
2026-05-05 08:25 48.71961 2.35964 297 ft 8 kts 75°
2026-05-05 08:25 48.71987 2.36114 299 ft 35 kts 75°
2026-05-05 08:25 48.72122 2.36835 298 ft 106 kts 77°
2026-05-05 08:25 48.72390 2.38217 318 ft 165 kts 72°
2026-05-05 08:26 48.72756 2.39991 915 ft 187 kts 71°
2026-05-05 08:26 48.73151 2.41903 1928 ft 198 kts 72°
2026-05-05 08:26 48.73539 2.44029 2650 ft 219 kts 75°
2026-05-05 08:26 48.73920 2.46345 3335 ft 233 kts 77°
2026-05-05 08:27 48.74135 2.48858 4163 ft 246 kts 85°
2026-05-05 08:27 48.74221 2.51477 5194 ft 252 kts 86°
2026-05-05 08:27 48.74286 2.54125 6273 ft 256 kts 88°
2026-05-05 08:27 48.74102 2.56817 7325 ft 261 kts 104°
2026-05-05 08:28 48.73227 2.59265 8351 ft 272 kts 129°
2026-05-05 08:28 48.71642 2.60882 9417 ft 283 kts 158°
2026-05-05 08:28 48.69705 2.61576 10363 ft 293 kts 168°
2026-05-05 08:28 48.68338 2.61902 10684 ft 308 kts 169°
2026-05-05 08:29 48.66133 2.62374 11105 ft 331 kts 171°
2026-05-05 08:29 48.62999 2.61901 12066 ft 350 kts 199°
2026-05-05 08:29 48.60764 2.60339 12990 ft 356 kts 206°
2026-05-05 08:30 48.56409 2.56879 14568 ft 369 kts 206°
2026-05-05 08:30 48.54127 2.55078 15513 ft 369 kts 206°
2026-05-05 08:30 48.51848 2.53297 16491 ft 369 kts 206°
2026-05-05 08:30 48.49563 2.51521 17412 ft 371 kts 205°
2026-05-05 08:31 48.47291 2.49771 18309 ft 373 kts 204°
2026-05-05 08:31 48.44880 2.48280 19050 ft 376 kts 197°
2026-05-05 08:31 48.42379 2.47085 19758 ft 380 kts 195°
2026-05-05 08:31 48.39828 2.45932 20482 ft 383 kts 195°
2026-05-05 08:32 48.37268 2.44783 21215 ft 386 kts 195°
2026-05-05 08:32 48.34685 2.43619 21872 ft 389 kts 195°
2026-05-05 08:32 48.32075 2.42512 22511 ft 392 kts 191°
2026-05-05 08:32 48.29359 2.41940 23122 ft 393 kts 181°
2026-05-05 08:33 48.26632 2.42217 23709 ft 395 kts 169°
2026-05-05 08:33 48.23963 2.43299 24327 ft 398 kts 161°
2026-05-05 08:33 48.21340 2.44683 24919 ft 402 kts 160°
2026-05-05 08:33 48.18690 2.46123 25537 ft 406 kts 160°
2026-05-05 08:34 48.16022 2.47562 26177 ft 409 kts 160°
2026-05-05 08:34 48.14240 2.48511 26548 ft 413 kts 160°
2026-05-05 08:34 48.10634 2.50437 27270 ft 417 kts 160°
2026-05-05 08:34 48.07888 2.51883 27799 ft 419 kts 161°
2026-05-05 08:35 48.05122 2.53288 28288 ft 422 kts 161°
2026-05-05 08:35 48.02325 2.54672 28752 ft 425 kts 162°
2026-05-05 08:35 47.99517 2.56045 29374 ft 423 kts 162°
2026-05-05 08:35 47.97660 2.56950 29846 ft 423 kts 162°
2026-05-05 08:36 47.94851 2.58318 30269 ft 426 kts 162°
2026-05-05 08:36 47.92033 2.59695 30640 ft 428 kts 162°
2026-05-05 08:36 47.89186 2.61088 31026 ft 431 kts 162°
2026-05-05 08:36 47.86337 2.62483 31433 ft 433 kts 162°
2026-05-05 08:37 47.83466 2.63890 31836 ft 435 kts 162°
2026-05-05 08:37 47.80588 2.65299 32412 ft 432 kts 162°
2026-05-05 08:37 47.77742 2.66690 33013 ft 429 kts 162°
2026-05-05 08:37 47.74910 2.68073 33588 ft 427 kts 162°
2026-05-05 08:38 47.72089 2.69450 34060 ft 426 kts 162°
2026-05-05 08:38 47.69264 2.70825 34409 ft 427 kts 163°
2026-05-05 08:38 47.66436 2.72201 34729 ft 429 kts 163°
2026-05-05 08:38 47.63583 2.73586 35051 ft 431 kts 163°
2026-05-05 08:39 47.60726 2.74973 35377 ft 432 kts 163°
2026-05-05 08:39 47.57862 2.76360 35699 ft 434 kts 163°
2026-05-05 08:39 47.54991 2.77750 36030 ft 435 kts 163°
2026-05-05 08:39 47.52107 2.79145 36363 ft 437 kts 163°
2026-05-05 08:40 47.49214 2.80543 36700 ft 438 kts 163°
2026-05-05 08:40 47.46343 2.81928 37017 ft 440 kts 164°
2026-05-05 08:40 47.43435 2.83330 37320 ft 440 kts 164°
2026-05-05 08:40 47.40507 2.84740 37596 ft 442 kts 164°
2026-05-05 08:41 47.37577 2.86149 37890 ft 443 kts 164°
2026-05-05 08:41 47.34643 2.87557 38186 ft 444 kts 164°
2026-05-05 08:41 47.31706 2.88967 38523 ft 444 kts 164°
2026-05-05 08:41 47.28767 2.90375 38744 ft 444 kts 165°
2026-05-05 08:42 47.25834 2.91779 39065 ft 443 kts 165°
2026-05-05 08:42 47.22892 2.93187 39360 ft 444 kts 164°
2026-05-05 08:42 47.19951 2.94591 39597 ft 445 kts 164°
2026-05-05 08:42 47.17004 2.95996 39829 ft 446 kts 164°
2026-05-05 08:43 47.14047 2.97405 40042 ft 446 kts 164°
2026-05-05 08:43 47.11098 2.98781 40287 ft 446 kts 165°
2026-05-05 08:43 47.08154 3.00059 40545 ft 445 kts 166°
2026-05-05 08:43 47.05166 3.01296 40750 ft 446 kts 167°
2026-05-05 08:44 47.02161 3.02513 40856 ft 450 kts 167°
2026-05-05 08:44 46.96073 3.04970 40855 ft 456 kts 167°
2026-05-05 08:45 46.89947 3.07465 40850 ft 456 kts 167°
2026-05-05 08:45 46.83839 3.09964 40853 ft 455 kts 167°
2026-05-05 08:46 46.77737 3.12458 40852 ft 455 kts 167°
2026-05-05 08:46 46.71632 3.14946 40847 ft 455 kts 167°
2026-05-05 08:47 46.65568 3.17411 40846 ft 455 kts 167°
2026-05-05 08:47 46.59464 3.19887 40855 ft 455 kts 167°
2026-05-05 08:48 46.53357 3.22358 40856 ft 456 kts 167°
2026-05-05 08:48 46.47255 3.24820 40853 ft 455 kts 167°
2026-05-05 08:49 46.41157 3.27276 40861 ft 455 kts 167°
2026-05-05 08:49 46.35078 3.29717 40876 ft 455 kts 167°
2026-05-05 08:50 46.28972 3.32164 40882 ft 455 kts 167°
2026-05-05 08:50 46.22871 3.34604 40885 ft 455 kts 167°
2026-05-05 08:51 46.16773 3.37036 40883 ft 455 kts 167°
2026-05-05 08:51 46.10668 3.39466 40878 ft 454 kts 167°
2026-05-05 08:52 46.04565 3.41890 40883 ft 454 kts 167°
2026-05-05 08:52 45.98504 3.44291 40882 ft 454 kts 167°
2026-05-05 08:53 45.92406 3.46702 40884 ft 454 kts 167°
2026-05-05 08:53 45.86401 3.49570 40882 ft 458 kts 157°
2026-05-05 08:54 45.80856 3.54161 40882 ft 461 kts 150°
2026-05-05 08:54 45.75486 3.59198 40884 ft 462 kts 149°
2026-05-05 08:55 45.70137 3.64303 40873 ft 462 kts 149°
2026-05-05 08:55 45.64772 3.69375 40878 ft 463 kts 149°
2026-05-05 08:56 45.59360 3.74448 40883 ft 463 kts 150°
2026-05-05 08:56 45.53960 3.79486 40885 ft 464 kts 150°
2026-05-05 08:57 45.48595 3.84480 40883 ft 464 kts 150°
2026-05-05 08:57 45.43188 3.89504 40889 ft 463 kts 150°
2026-05-05 08:58 45.37863 3.94709 40877 ft 466 kts 143°
2026-05-05 08:58 45.33454 4.01463 40893 ft 471 kts 131°
2026-05-05 08:59 45.29506 4.09007 40883 ft 474 kts 129°
2026-05-05 08:59 45.25671 4.16622 40884 ft 475 kts 129°
2026-05-05 09:00 45.21838 4.24190 40868 ft 475 kts 130°
2026-05-05 09:00 45.17953 4.31771 40891 ft 475 kts 130°
2026-05-05 09:01 45.14052 4.39335 40894 ft 475 kts 130°
2026-05-05 09:01 45.10085 4.46799 40893 ft 473 kts 133°
2026-05-05 09:02 45.05806 4.53881 40901 ft 473 kts 135°
2026-05-05 09:02 45.01470 4.60807 40899 ft 473 kts 135°
2026-05-05 09:03 44.97127 4.67792 40908 ft 473 kts 135°
2026-05-05 09:03 44.92806 4.74790 40918 ft 473 kts 135°
2026-05-05 09:04 44.88488 4.81790 40909 ft 473 kts 135°
2026-05-05 09:04 44.84158 4.88793 40912 ft 474 kts 135°
2026-05-05 09:05 44.79815 4.95797 40900 ft 474 kts 135°
2026-05-05 09:05 44.75467 5.02792 40915 ft 474 kts 135°
2026-05-05 09:06 44.71114 5.09775 40918 ft 474 kts 135°
2026-05-05 09:06 44.66762 5.16740 40918 ft 474 kts 135°
2026-05-05 09:07 44.62409 5.23688 40930 ft 474 kts 135°
2026-05-05 09:07 44.58070 5.30597 40926 ft 474 kts 136°
2026-05-05 09:08 44.53711 5.37522 40929 ft 474 kts 136°
2026-05-05 09:08 44.49339 5.44449 40932 ft 474 kts 136°
2026-05-05 09:09 44.44966 5.51362 40932 ft 474 kts 136°
2026-05-05 09:09 44.40579 5.58279 40933 ft 474 kts 136°
2026-05-05 09:10 44.36477 5.65544 40939 ft 478 kts 129°
2026-05-05 09:10 44.32692 5.73194 40933 ft 479 kts 128°
2026-05-05 09:11 44.28981 5.80866 40943 ft 479 kts 128°
2026-05-05 09:11 44.25228 5.88614 40938 ft 479 kts 129°
2026-05-05 09:12 44.21500 5.96257 40946 ft 479 kts 129°
2026-05-05 09:12 44.17742 6.03928 40946 ft 479 kts 129°
2026-05-05 09:13 44.13975 6.11595 40944 ft 479 kts 129°
2026-05-05 09:13 44.10200 6.19260 40949 ft 480 kts 129°
2026-05-05 09:14 44.06415 6.26924 40942 ft 479 kts 129°
2026-05-05 09:14 44.02627 6.34574 40956 ft 480 kts 129°
2026-05-05 09:15 43.98833 6.42215 40951 ft 480 kts 129°
2026-05-05 09:15 43.95066 6.49783 40951 ft 480 kts 129°
2026-05-05 09:16 43.91262 6.57404 40955 ft 481 kts 129°
2026-05-05 09:16 43.87449 6.65027 40959 ft 480 kts 129°
2026-05-05 09:17 43.83635 6.72632 40960 ft 480 kts 129°
2026-05-05 09:17 43.79814 6.80228 40958 ft 480 kts 129°
2026-05-05 09:18 43.75995 6.87801 40961 ft 481 kts 129°
2026-05-05 09:18 43.71625 6.94589 40962 ft 470 kts 146°
2026-05-05 09:19 43.66146 6.99262 40964 ft 460 kts 158°
2026-05-05 09:19 43.60362 7.03032 40957 ft 459 kts 161°
2026-05-05 09:20 43.55524 7.06033 40967 ft 459 kts 161°
2026-05-05 09:20 43.49694 7.09666 40965 ft 459 kts 160°
2026-05-05 09:21 43.42926 7.13932 40962 ft 460 kts 160°
2026-05-05 09:21 43.37121 7.17604 40958 ft 459 kts 160°
2026-05-05 09:22 43.31316 7.21268 40954 ft 459 kts 160°
2026-05-05 09:22 43.26445 7.24336 40951 ft 459 kts 160°
2026-05-05 09:23 43.19694 7.28578 40942 ft 459 kts 160°
2026-05-05 09:23 43.14865 7.31605 40950 ft 459 kts 160°
2026-05-05 09:24 43.09045 7.35247 40951 ft 459 kts 160°
2026-05-05 09:24 43.03224 7.38882 40951 ft 459 kts 160°
2026-05-05 09:25 42.97405 7.42507 40955 ft 459 kts 160°
2026-05-05 09:25 42.91589 7.46124 40959 ft 460 kts 160°
2026-05-05 09:26 42.85793 7.49720 40958 ft 460 kts 160°
2026-05-05 09:26 42.79979 7.53320 40958 ft 460 kts 160°
2026-05-05 09:27 42.74146 7.56924 40955 ft 460 kts 161°
2026-05-05 09:27 42.68307 7.60525 40952 ft 461 kts 160°
2026-05-05 09:28 42.62463 7.64121 40964 ft 461 kts 160°
2026-05-05 09:28 42.56619 7.67710 40963 ft 461 kts 161°
2026-05-05 09:29 42.50758 7.71302 40965 ft 461 kts 161°
2026-05-05 09:29 42.46890 7.73668 40966 ft 461 kts 161°
2026-05-05 09:30 42.43955 7.75461 40968 ft 461 kts 161°
2026-05-05 09:31 42.38146 7.79005 40973 ft 461 kts 161°
2026-05-05 09:31 42.32300 7.82564 40966 ft 461 kts 161°
2026-05-05 09:32 42.26440 7.86124 40975 ft 462 kts 161°
2026-05-05 09:32 42.20574 7.89681 40979 ft 462 kts 161°
2026-05-05 09:33 42.14700 7.93236 40980 ft 462 kts 161°
2026-05-05 09:33 42.08828 7.96782 40982 ft 462 kts 161°
2026-05-05 09:34 42.02956 8.00320 40983 ft 463 kts 161°
2026-05-05 09:34 41.96950 8.03197 40987 ft 454 kts 173°
2026-05-05 09:35 41.90732 8.04521 40972 ft 450 kts 178°
2026-05-05 09:35 41.81435 8.05961 40995 ft 450 kts 179°
2026-05-05 09:36 41.75203 8.06905 40997 ft 450 kts 179°
2026-05-05 09:36 41.68977 8.07874 40989 ft 450 kts 179°
2026-05-05 09:37 41.62750 8.08855 41003 ft 451 kts 179°
2026-05-05 09:37 41.56542 8.09833 41002 ft 451 kts 179°
2026-05-05 09:38 41.50299 8.10814 41002 ft 451 kts 179°
2026-05-05 09:38 41.44070 8.11789 41001 ft 452 kts 179°
2026-05-05 09:39 41.37832 8.12764 41006 ft 452 kts 179°
2026-05-05 09:39 41.31577 8.13740 41003 ft 452 kts 179°
2026-05-05 09:40 41.25327 8.14714 41007 ft 452 kts 179°
2026-05-05 09:40 41.19074 8.15825 41016 ft 458 kts 173°
2026-05-05 09:41 41.13026 8.18790 41017 ft 470 kts 158°
2026-05-05 09:41 41.07354 8.23036 41018 ft 472 kts 157°
2026-05-05 09:42 41.01547 8.27076 41016 ft 471 kts 159°
2026-05-05 09:42 40.95694 8.30969 41019 ft 471 kts 159°
2026-05-05 09:43 40.89827 8.34858 41012 ft 471 kts 159°
2026-05-05 09:43 40.83967 8.38757 41026 ft 471 kts 159°
2026-05-05 09:44 40.78110 8.42659 41005 ft 472 kts 159°
2026-05-05 09:44 40.72240 8.46566 41030 ft 472 kts 159°
2026-05-05 09:45 40.66411 8.50436 41028 ft 472 kts 159°
2026-05-05 09:45 40.60536 8.54328 41034 ft 472 kts 159°
2026-05-05 09:46 40.54662 8.58211 41033 ft 473 kts 159°
2026-05-05 09:46 40.48768 8.62100 41033 ft 474 kts 159°
2026-05-05 09:47 40.42862 8.65990 41034 ft 474 kts 159°
2026-05-05 09:47 40.36971 8.69862 41034 ft 474 kts 159°
2026-05-05 09:48 40.32064 8.73081 41034 ft 473 kts 159°
2026-05-05 09:48 40.25266 8.77536 41033 ft 469 kts 159°
2026-05-05 09:49 40.19422 8.81354 41035 ft 468 kts 159°
2026-05-05 09:49 40.13596 8.85151 41008 ft 468 kts 159°
2026-05-05 09:50 40.07757 8.88949 41041 ft 469 kts 159°
2026-05-05 09:50 40.02072 8.92641 41035 ft 470 kts 159°
2026-05-05 09:51 39.96214 8.96440 41039 ft 470 kts 159°
2026-05-05 09:51 39.90363 9.00227 41031 ft 470 kts 159°
2026-05-05 09:52 39.84531 9.03994 41040 ft 471 kts 160°
2026-05-05 09:52 39.78653 9.07783 41039 ft 471 kts 160°
2026-05-05 09:53 39.72783 9.11559 41040 ft 471 kts 159°
2026-05-05 09:53 39.66899 9.15338 41028 ft 471 kts 159°
2026-05-05 09:54 39.61012 9.19111 41043 ft 473 kts 160°
2026-05-05 09:54 39.55095 9.22896 41042 ft 474 kts 160°
2026-05-05 09:55 39.49216 9.26650 41041 ft 474 kts 160°
2026-05-05 09:55 39.43298 9.30424 41045 ft 473 kts 160°
2026-05-05 09:56 39.37381 9.34187 41046 ft 475 kts 160°
2026-05-05 09:56 39.31446 9.37954 41044 ft 475 kts 160°
2026-05-05 09:57 39.25510 9.41716 41046 ft 475 kts 160°
2026-05-05 09:57 39.19616 9.45444 41045 ft 475 kts 160°
2026-05-05 09:58 39.13665 9.49201 41047 ft 476 kts 160°
2026-05-05 09:58 39.07771 9.53133 41048 ft 479 kts 156°
2026-05-05 09:59 39.01999 9.57409 41047 ft 480 kts 155°
2026-05-05 09:59 38.96231 9.61736 41045 ft 479 kts 155°
2026-05-05 10:00 38.90476 9.66000 41040 ft 481 kts 155°
2026-05-05 10:00 38.84662 9.70265 41046 ft 481 kts 156°
2026-05-05 10:01 38.78840 9.74521 41037 ft 481 kts 156°
2026-05-05 10:01 38.73019 9.78769 41035 ft 481 kts 156°
2026-05-05 10:02 38.67197 9.83010 41032 ft 482 kts 156°
2026-05-05 10:02 38.61393 9.87230 41041 ft 483 kts 155°
2026-05-05 10:03 38.55510 9.91501 41028 ft 483 kts 156°
2026-05-05 10:03 38.49696 9.95715 41026 ft 483 kts 156°
2026-05-05 10:04 38.43835 9.99953 41036 ft 483 kts 156°
2026-05-05 10:04 38.37977 10.04181 41041 ft 484 kts 156°
2026-05-05 10:05 38.32110 10.08408 41041 ft 484 kts 156°
2026-05-05 10:05 38.26242 10.12628 41043 ft 484 kts 156°
2026-05-05 10:06 38.20378 10.16837 41032 ft 484 kts 156°
2026-05-05 10:06 38.14508 10.21042 41041 ft 484 kts 156°
2026-05-05 10:07 38.08645 10.25235 41048 ft 484 kts 156°
2026-05-05 10:07 38.02546 10.28192 41058 ft 462 kts 181°
2026-05-05 10:08 37.96177 10.28441 41059 ft 457 kts 187°
2026-05-05 10:08 37.89822 10.28114 41058 ft 456 kts 189°
2026-05-05 10:09 37.83472 10.27706 41051 ft 456 kts 189°
2026-05-05 10:09 37.77124 10.27355 41050 ft 457 kts 188°
2026-05-05 10:10 37.71835 10.27095 41046 ft 457 kts 188°
2026-05-05 10:10 37.65484 10.26796 41046 ft 457 kts 188°
2026-05-05 10:11 37.58087 10.26449 41043 ft 457 kts 188°
2026-05-05 10:11 37.51729 10.26185 41043 ft 459 kts 186°
2026-05-05 10:12 37.45336 10.26339 41044 ft 460 kts 184°
2026-05-05 10:12 37.39974 10.26514 41037 ft 460 kts 184°
2026-05-05 10:13 37.33579 10.26712 41035 ft 460 kts 185°
2026-05-05 10:13 37.27188 10.26904 41053 ft 460 kts 185°
2026-05-05 10:14 37.20802 10.27095 41039 ft 457 kts 185°
2026-05-05 10:14 37.14494 10.27282 41035 ft 456 kts 185°
2026-05-05 10:15 37.08144 10.27469 41031 ft 456 kts 185°
2026-05-05 10:15 37.01805 10.27633 41004 ft 450 kts 192°
2026-05-05 10:16 36.95809 10.25932 41022 ft 441 kts 200°
2026-05-05 10:16 36.89833 10.24091 41020 ft 443 kts 199°
2026-05-05 10:17 36.83703 10.23002 41019 ft 456 kts 181°
2026-05-05 10:17 36.80559 10.23800 41021 ft 466 kts 168°
2026-05-05 10:17 36.77472 10.25074 41009 ft 467 kts 169°
2026-05-05 10:18 36.71497 10.28365 41024 ft 484 kts 145°
2026-05-05 10:18 36.69163 10.31370 41054 ft 493 kts 129°
2026-05-05 10:18 36.67498 10.35125 41056 ft 499 kts 112°
2026-05-05 10:19 36.66663 10.39338 41056 ft 502 kts 96°
2026-05-05 10:19 36.66733 10.43673 41057 ft 501 kts 79°
2026-05-05 10:19 36.67696 10.47818 41058 ft 497 kts 62°
2026-05-05 10:19 36.69473 10.51464 41055 ft 490 kts 46°
2026-05-05 10:20 36.71918 10.54347 41053 ft 479 kts 29°
2026-05-05 10:20 36.74824 10.56255 41059 ft 467 kts 13°
2026-05-05 10:20 36.77941 10.57065 41064 ft 453 kts 356°
2026-05-05 10:20 36.81030 10.56744 41058 ft 441 kts 340°
2026-05-05 10:21 36.82757 10.56051 40939 ft 431 kts 330°
2026-05-05 10:21 36.85250 10.54198 40338 ft 398 kts 314°
2026-05-05 10:21 36.87036 10.51727 39439 ft 374 kts 297°
2026-05-05 10:21 36.88014 10.48831 38497 ft 355 kts 279°
2026-05-05 10:22 36.88098 10.45817 37417 ft 343 kts 262°
2026-05-05 10:22 36.87602 10.42980 36434 ft 335 kts 257°
2026-05-05 10:22 36.86985 10.40205 35490 ft 327 kts 256°
2026-05-05 10:22 36.86417 10.37501 34584 ft 318 kts 264°
2026-05-05 10:23 36.86145 10.34791 33668 ft 311 kts 265°
2026-05-05 10:23 36.85914 10.32129 32715 ft 305 kts 265°
2026-05-05 10:23 36.85692 10.29514 31782 ft 299 kts 265°
2026-05-05 10:23 36.85471 10.26960 30919 ft 294 kts 265°
2026-05-05 10:24 36.85250 10.24443 30093 ft 289 kts 264°
2026-05-05 10:24 36.85105 10.21962 29166 ft 284 kts 271°
2026-05-05 10:24 36.85321 10.19527 28285 ft 280 kts 283°
2026-05-05 10:24 36.86011 10.17323 27505 ft 277 kts 298°
2026-05-05 10:25 36.87249 10.15476 26658 ft 279 kts 316°
2026-05-05 10:25 36.88967 10.14308 25868 ft 286 kts 338°
2026-05-05 10:25 36.90955 10.14055 25119 ft 294 kts
2026-05-05 10:25 36.92917 10.14853 24404 ft 302 kts 26°
2026-05-05 10:26 36.94480 10.16602 23727 ft 306 kts 52°
2026-05-05 10:26 36.95372 10.19004 22947 ft 306 kts 77°
2026-05-05 10:26 36.95459 10.21629 22191 ft 302 kts 96°
2026-05-05 10:26 36.95264 10.24223 21491 ft 297 kts 98°
2026-05-05 10:27 36.95023 10.26751 20754 ft 299 kts 97°
2026-05-05 10:27 36.94870 10.29308 20088 ft 295 kts 95°
2026-05-05 10:27 36.94620 10.31784 19512 ft 285 kts 113°
2026-05-05 10:27 36.93668 10.33871 18892 ft 272 kts 137°
2026-05-05 10:28 36.92241 10.35315 18275 ft 258 kts 159°
2026-05-05 10:28 36.90585 10.35988 17567 ft 245 kts 180°
2026-05-05 10:28 36.88941 10.35863 16874 ft 232 kts 200°
2026-05-05 10:28 36.87518 10.35033 16216 ft 223 kts 220°
2026-05-05 10:29 36.86469 10.33654 15553 ft 218 kts 239°
2026-05-05 10:29 36.85911 10.31914 14910 ft 216 kts 257°
2026-05-05 10:29 36.85703 10.30060 14268 ft 215 kts 262°
2026-05-05 10:29 36.85572 10.28375 13706 ft 214 kts 262°
2026-05-05 10:30 36.85425 10.26526 13008 ft 214 kts 261°
2026-05-05 10:30 36.85266 10.24690 12335 ft 213 kts 261°
2026-05-05 10:30 36.85144 10.22845 11657 ft 215 kts 268°
2026-05-05 10:30 36.85479 10.21009 10972 ft 223 kts 294°
2026-05-05 10:31 36.86561 10.19598 10311 ft 234 kts 328°
2026-05-05 10:31 36.88157 10.19197 9636 ft 240 kts
2026-05-05 10:31 36.89653 10.20053 8980 ft 238 kts 45°
2026-05-05 10:31 36.90431 10.21639 8448 ft 229 kts 77°
2026-05-05 10:32 36.90841 10.23532 7881 ft 225 kts 72°
2026-05-05 10:32 36.91597 10.25222 7307 ft 226 kts 56°
2026-05-05 10:32 36.92560 10.26804 6783 ft 225 kts 53°
2026-05-05 10:32 36.93524 10.28340 6291 ft 225 kts 53°
2026-05-05 10:33 36.94567 10.29788 5925 ft 223 kts 40°
2026-05-05 10:33 36.95774 10.30880 5738 ft 213 kts 34°
2026-05-05 10:33 36.97019 10.31905 5423 ft 211 kts 33°
2026-05-05 10:33 36.98248 10.32905 5048 ft 211 kts 33°
2026-05-05 10:34 36.99484 10.33843 4693 ft 210 kts 23°
2026-05-05 10:34 37.00909 10.34029 4286 ft 206 kts 345°
2026-05-05 10:34 37.02202 10.33328 3942 ft 201 kts 329°
2026-05-05 10:34 37.03399 10.32469 3617 ft 196 kts 318°
2026-05-05 10:35 37.04123 10.31092 3171 ft 189 kts 280°
2026-05-05 10:35 37.04101 10.29489 2754 ft 184 kts 253°
2026-05-05 10:35 37.03345 10.28263 2323 ft 181 kts 213°
2026-05-05 10:35 37.02265 10.27515 2050 ft 177 kts 201°
2026-05-05 10:36 37.01085 10.27072 2002 ft 176 kts 192°
2026-05-05 10:36 36.99895 10.26740 1998 ft 174 kts 192°
2026-05-05 10:36 36.98710 10.26418 1994 ft 174 kts 192°
2026-05-05 10:36 36.97519 10.26090 1993 ft 175 kts 192°
2026-05-05 10:37 36.96384 10.25775 1932 ft 157 kts 192°
2026-05-05 10:37 36.95368 10.25494 1743 ft 144 kts 191°
2026-05-05 10:37 36.94436 10.25240 1558 ft 133 kts 191°
2026-05-05 10:37 36.93549 10.24999 1390 ft 131 kts 191°
2026-05-05 10:38 36.92676 10.24761 1193 ft 125 kts 189°
2026-05-05 10:38 36.91824 10.24529 1039 ft 125 kts 189°
2026-05-05 10:38 36.90973 10.24296 883 ft 125 kts 189°
2026-05-05 10:38 36.90120 10.24062 728 ft 125 kts 189°
2026-05-05 10:39 36.89270 10.23856 529 ft 123 kts 187°
2026-05-05 10:39 36.88421 10.23616 419 ft 126 kts 189°
2026-05-05 10:39 36.87573 10.23369 247 ft 124 kts 187°
2026-05-05 10:39 36.86726 10.23145 87 ft 123 kts 187°
2026-05-05 10:40 36.85938 10.22932 33 ft 98 kts 192°
2026-05-05 10:40 36.85469 10.22797 36 ft 41 kts 192°
2026-05-05 10:40 36.85254 10.22741 37 ft 31 kts 191°
2026-05-05 10:40 36.85041 10.22683 38 ft 32 kts 193°
2026-05-05 10:41 36.84936 10.22631 37 ft 2 kts 249°
2026-05-05 10:41 36.84938 10.22585 36 ft 9 kts 277°
2026-05-05 10:41 36.84969 10.22473 35 ft 18 kts 293°
2026-05-05 10:41 36.84966 10.22398 35 ft 2 kts 221°
2026-05-05 10:42 36.84875 10.22335 34 ft 3 kts 246°
2026-05-05 10:42 36.84881 10.22237 34 ft 25 kts 281°
2026-05-05 10:42 36.84869 10.22148 34 ft 4 kts 220°
2026-05-05 10:43 36.84854 10.22129 34 ft 5 kts 233°